Weather Service Report


339 
ASUS41 KRLX 270110
RWRRLX
West Virginia Regional Weather Roundup
National Weather Service Charleston WV
800 PM EST WED NOV 26 2014

Note: "fair" indicates few or no clouds below 12,000 feet with no
significant weather and/or obstructions to visibility.

WVZ003-270200-
Northern Panhandle of West Virginia
  
CITY           SKY/WX    TMP DP  RH WIND       PRES   REMARKS
WHEELING       CLOUDY    32  31  96 CALM      30.01R FOG              
$$

WVZ009-270200-
Northwest West Virginia
  
CITY           SKY/WX    TMP DP  RH WIND       PRES   REMARKS
PARKERSBURG    CLOUDY    35  33  92 CALM      30.05S FOG              
$$

WVZ006-270200-
Western West Virginia
  
CITY           SKY/WX    TMP DP  RH WIND       PRES   REMARKS
HUNTINGTON     CLEAR     37  31  78 E5        30.01R                  
$$

WVZ015-270200-
West Central West Virginia
  
CITY           SKY/WX    TMP DP  RH WIND       PRES   REMARKS
CHARLESTON     CLOUDY    36  35  96 SE3       30.02R FOG              
$$

WVZ022-031-270200-
North Central West Virginia
  
CITY           SKY/WX    TMP DP  RH WIND       PRES   REMARKS
CLARKSBURG     CLOUDY    35  35 100 CALM      30.00S FOG              
MORGANTOWN     LGT SNOW  34  30  85 W3        30.00S FOG              
$$

WVZ025-035-042-045-270200-
Southern West Virginia
  
CITY           SKY/WX    TMP DP  RH WIND       PRES   REMARKS
BECKLEY        CLOUDY    34  32  92 NW3       29.97S FOG              
LOGAN          FOG       34  34 100 CALM      29.99S VSB<1/4          
BLUEFIELD      CLOUDY    34  31  88 W5        29.98R FOG              
LEWISBURG      CLOUDY    37  34  90 W3        29.97S                  
$$

WVZ047-270200-
Northern Mountains of West Virginia
  
CITY           SKY/WX    TMP DP  RH WIND       PRES   REMARKS
ELKINS         CLOUDY    33  33 100 SW3       29.97S FOG              
$$

WVZ052-270200-
Eastern Panhandle of West Virginia
  
CITY           SKY/WX    TMP DP  RH WIND       PRES   REMARKS
MARTINSBURG    MOCLDY    36  30  79 NW7       29.98R                  
PETERSBURG     NOT AVBL                                               
$$

Return to Home page


Western Regional Climate Center, wrcc@dri.edu